Regional Weather Roundup
Issued by NWS

Home | Current Version | Previous Version | Graphics & Text | Print | Product List | Glossary Off
Versions: 1 2 3 4 5 6 7 8 9 10 11 12 13 14 15 16 17 18 19 20 21 22 23 24 25 26 27 28 29 30 31 32 33 34 35 36 37 38 39 40 41 42 43 44 45 46 47 48 49 50

000
ASUS43 KTOP 162259
RWRKS

WEATHER ROUNDUP FOR KANSAS
NATIONAL WEATHER SERVICE GOODLAND KS
500 PM CST SAT DEC 16 2017

NOTE:  "FAIR" INDICATES FEW OR NO CLOUDS BELOW 12,000 FEET WITH NO
SIGNIFICANT WEATHER AND/OR OBSTRUCTIONS TO VISIBILITY.

KSZ001>006-013>018-027>032-041>047-170000-
NORTHWEST KANSAS

CITY           SKY/WX    TMP DP  RH WIND       PRES   REMARKS
GOODLAND       CLEAR     49  17  28 NE20G28   29.77R
HAYS           CLEAR     54  21  27 SE8       29.76R
HILL CITY      CLEAR     49  20  31 NE10      29.79R
RUSSELL        CLEAR     53  25  33 SE9       29.77R
$$

KSZ061>065-074>080-084>089-170000-
SOUTHWEST KANSAS

CITY           SKY/WX    TMP DP  RH WIND       PRES   REMARKS
DODGE CITY     CLEAR     56  20  24 S13       29.74R
GARDEN CITY    CLEAR     56  14  19 S9        29.71R
GREAT BEND     CLEAR     55  22  27 S12       29.77S
LIBERAL        CLEAR     57  16  20 S21       29.72R
$$

KSZ066>073-081>083-090>101-170000-
SOUTHEAST KANSAS

CITY           SKY/WX    TMP DP  RH WIND       PRES   REMARKS
CHANUTE        CLEAR     54  26  34 S15       29.93R
COFFEYVILLE    CLOUDY    56  25  30 S7        29.95R
HUTCHINSON     CLOUDY    56  23  27 S10       29.81S
MEDICINE LODGE   N/A     56  27  32 S15G28    29.82R
NEWTON         PTCLDY    55  23  28 S17       29.84R
PARSONS        CLEAR     55  25  31 S6        29.95R
WICHITA INTL   PTCLDY    57  26  30 S15       29.84R
WICHITA JABRA  CLEAR     55  26  32 S15       29.85R
WINFIELD       CLEAR     55  26  32 S10       29.90R
$$

KSZ007>012-019>026-033>040-048>060-102>105-170000-
NORTHEAST KANSAS

CITY           SKY/WX    TMP DP  RH WIND       PRES   REMARKS
CONCORDIA      CLEAR     50  25  37 NE5       29.83R
EMPORIA        CLEAR     55  24  30 S16       29.88R
LAWRENCE       CLEAR     54  25  32 S8        29.90R
MANHATTAN      CLEAR     57  24  28 S9        29.86R
OLATHE IND     CLEAR     51  27  39 S6        29.92R
OLATHE EXE     CLEAR     53  27  36 S9        29.91R
SALINA         CLEAR     54  27  35 S8        29.83R
TOPEKA BILLARD CLEAR     53  27  36 SE7       29.88R
TOPEKA FORBES  CLEAR     55  27  34 S7        29.88R
$$




USA.gov is the U.S. government's official web portal to all federal, state and local government web resources and services.